Weather Roundup
Issued by NWS Chicago, IL

Home | Current Version | Previous Version | Graphics & Text | Print | Product List | Glossary On
Versions: 1 2 3 4 5 6 7 8 9 10 11 12 13 14 15 16 17 18 19 20 21 22 23 24 25 26 27 28 29 30 31 32 33 34 35 36 37 38 39 40 41 42 43 44 45 46 47 48 49 50
000
NZUS59 KLOT 300509
HRRLOT

CHICAGO AREA WEATHER ROUNDUP
NATIONAL WEATHER SERVICE CHICAGO/ROMEOVILLE IL
1200 AM CDT SAT JUL 30 2016

NOTE: "FAIR" INDICATES FEW OR NO CLOUDS BELOW 12,000 FEET WITH NO
SIGNIFICANT WEATHER AND/OR OBSTRUCTIONS TO VISIBILITY.

* THESE STATIONS ARE NOT UNDER NWS QUALITY CONTROL. THEY ALSO MAY NOT
  REPORT WEATHER SUCH AS PRECIPITATION OR FOG.

ILZ005-006-012>014-019>023-300600-
NORTHEAST ILLINOIS

CITY           SKY/WX    TMP DP  RH WIND       PRES   REMARKS
OHARE          MOCLDY    71  67  87 VRB7      29.95S
MIDWAY         CLOUDY    75  67  76 E12       29.94S
AURORA         CLEAR     68  66  93 N5        29.96R
LANSING*       CLOUDY    71  67  87 NE5       29.94S
JOLIET*        MOCLDY    71  69  94 NE3       29.94S
WAUKEGAN       CLOUDY    70  67  90 NE5       29.96S
DUPAGE AIRPORT PTCLDY    68  65  90 N7        29.95S
WHEELING       CLOUDY    71  66  84 N5        29.96F
KANKAKEE*      PTCLDY    67  65  93 NE3       29.94R
MORRIS*        PTCLDY    68  67  96 CALM      29.93S FOG
LEWIS AIRPORT* CLOUDY    70  67  89 NE6       29.95S
NORTHERLY ISL    N/A     74  66  76 NE14        N/A
$$

WIZ051-052-058>065-066-070>072-300600-
SOUTHEAST WISCONSIN

CITY           SKY/WX    TMP DP  RH WIND       PRES   REMARKS
MILWAUKEE      CLOUDY    71  65  81 E8        29.98S
KENOSHA*       CLOUDY    69  66  90 N3        29.98S
RACINE*        CLOUDY    71  65  81 E8        29.99S
BURLINGTON     CLOUDY    64  63  96 CALM      29.99R
WAUKESHA       CLOUDY    64  61  88 NE5       30.00S
WEST BEND      CLOUDY    64  61  88 CALM      30.01R
$$

INZ001>003-010>013-019-020-300600-
NORTHWEST INDIANA

CITY           SKY/WX    TMP DP  RH WIND       PRES   REMARKS
GARY*          CLOUDY    74  71  91 NE12      29.95S
MICHIGAN CITY* NOT AVBL
RENSSELAER*    NOT AVBL
VALPARAISO     CLEAR     67  65  93 NE3       29.95R
$$

LMZ740>746-300600-
SOUTHERN LAKE MICHIGAN

STATION/POSITION TIME  SKY/WX   TEMP WIND        PRES    VSBY
                                AIR  DIR/SP/G
                 (UTC)          (F)  (DEG/KT/KT) (MB)    (MI)
HARRISON CRIB    0400            74   60/ 18/ 21   N/A
BURNHAM HARBOR   0500            74   50/ 13/ 15   N/A
CALUMET HARBOR   0400            74   40/  9/ 13 1013.4R
BURNS HARBOR     0404            71   80/ 10/ 12 1014.2R
MICHIGAN CITY    0400            70   50/  8/  8   N/A
$$

ABBREVIATIONS USED IN REMARKS
   TC - TEMPERATURE IN CELSIUS
  WCI - WIND CHILL INDEX
   HX - HEAT INDEX
  VSB - VISIBILITY
$$




USA.gov is the U.S. government's official web portal to all federal, state and local government web resources and services.